FW1310 Weather Reports


time (UTC)temp
F
wind
direction
speed
knots
gust
knots
rain 1hr
in
rain 24hr
in
rain mn
in
humidity
%
barometer
mb
20260510111504 68 257 0.0 2.6 0.00 0.02 0.00 89 997.1
20260510111004 68 314 0.9 2.6 0.00 0.02 0.00 89 997.1
20260510110504 68 274 0.9 2.6 0.00 0.02 0.00 89 997.2
20260510110005 68 280 1.7 2.6 0.00 0.02 0.00 89 997.2
20260510105504 68 271 0.9 2.6 0.00 0.02 0.00 89 997.0
20260510105004 68 278 0.9 2.6 0.00 0.02 0.00 89 997.1
20260510104504 68 247 0.0 2.6 0.00 0.02 0.00 89 997.2
20260510104004 68 267 0.0 0.9 0.00 0.02 0.00 89 997.1
20260510103504 69 281 0.0 0.9 0.00 0.02 0.00 88 997.1
20260510103004 69 271 0.0 1.7 0.00 0.02 0.00 88 996.9
20260510102503 69 243 0.0 1.7 0.00 0.02 0.00 88 996.9
20260510102004 69 343 0.9 4.3 0.00 0.02 0.00 88 996.7
20260510101504 69 316 1.7 4.3 0.00 0.02 0.00 88 996.8
20260510101004 69 287 0.0 1.7 0.00 0.02 0.00 88 996.7
20260510100504 69 348 1.7 2.6 0.00 0.02 0.00 88 996.6
20260510095004 69 303 0.0 4.3 0.00 0.02 0.00 87 996.5
20260510094504 69 286 0.9 4.3 0.00 0.02 0.00 87 996.4
20260510094004 70 212 0.9 4.3 0.00 0.02 0.00 87 996.3
20260510093504 70 257 0.9 4.3 0.00 0.02 0.00 86 996.4
20260510093004 70 280 0.9 2.6 0.00 0.02 0.00 86 996.4
20260510092504 70 289 0.9 2.6 0.00 0.02 0.00 86 996.4
20260510091504 70 238 0.0 1.7 0.00 0.02 0.00 85 996.4
20260510091004 70 325 1.7 4.3 0.00 0.02 0.00 85 996.3
20260510090505 71 277 0.9 2.6 0.00 0.02 0.00 85 996.4
20260510090004 71 324 1.7 2.6 0.00 0.02 0.00 84 996.3
20260510085504 71 273 1.7 2.6 0.00 0.02 0.00 84 996.4
20260510084004 71 340 1.7 4.3 0.00 0.02 0.00 83 996.5
20260510083504 71 249 1.7 4.3 0.00 0.02 0.00 83 996.5
20260510083004 71 210 1.7 2.6 0.00 0.02 0.00 83 996.5
20260510082504 71 230 0.9 2.6 0.00 0.02 0.00 83 996.7
20260510082004 71 349 0.9 4.3 0.00 0.02 0.00 83 996.7
20260510081504 71 318 0.9 4.3 0.00 0.02 0.00 82 996.7
20260510081005 71 257 1.7 2.6 0.00 0.02 0.00 82 996.8
20260510080504 71 338 0.9 4.3 0.00 0.02 0.00 82 996.9
20260510080004 71 20 1.7 4.3 0.00 0.02 0.00 82 996.6
20260510075504 71 291 0.9 1.7 0.00 0.02 0.00 82 996.7
20260510075005 71 291 0.9 4.3 0.00 0.02 0.00 81 996.7
20260510074504 71 303 1.7 4.3 0.00 0.02 0.00 81 997.0
20260510074004 72 244 0.9 1.7 0.00 0.02 0.00 80 997.1
20260510073504 72 248 0.9 2.6 0.00 0.02 0.00 80 997.1
20260510072503 72 213 1.7 4.3 0.00 0.02 0.00 79 996.9
20260510072004 72 262 1.7 4.3 0.00 0.02 0.00 79 996.9
20260510071504 73 205 0.9 2.6 0.00 0.02 0.00 78 996.9
20260510071004 73 259 1.7 4.3 0.00 0.02 0.00 78 996.8
20260510070504 73 317 1.7 4.3 0.00 0.02 0.00 78 996.7
20260510070004 73 288 2.6 5.2 0.00 0.02 0.00 77 996.8
20260510065504 73 256 1.7 6.1 0.00 0.02 0.00 77 996.7
20260510065004 73 225 2.6 6.1 0.00 0.02 0.00 76 996.6
20260510064504 74 263 3.5 6.1 0.00 0.02 0.00 76 996.8
20260510064004 74 271 2.6 5.2 0.00 0.02 0.00 75 996.8
20260510063504 74 263 2.6 6.1 0.00 0.02 0.00 75 996.7
20260510063004 74 255 1.7 7.0 0.00 0.02 0.00 74 996.8
20260510062504 74 241 2.6 8.7 0.00 0.02 0.00 74 996.8
20260510062005 74 220 2.6 8.7 0.00 0.02 0.00 74 996.7
20260510061004 74 249 2.6 4.3 0.00 0.02 0.00 75 996.8
20260510060504 74 262 1.7 4.3 0.00 0.02 0.00 75 996.8
20260510060004 75 267 2.6 5.2 0.00 0.02 0.00 74 996.8
20260510055004 75 236 1.7 4.3 0.00 0.02 0.00 74 996.8
20260510054504 75 246 0.9 5.2 0.00 0.02 0.00 74 996.7
20260510054004 75 272 2.6 5.2 0.00 0.02 0.00 74 996.7
20260510053504 75 232 1.7 5.2 0.00 0.02 0.00 76 996.7
20260510053004 75 261 2.6 5.2 0.00 0.02 0.00 78 996.7
20260510052504 75 267 3.5 6.1 0.00 0.02 0.00 80 996.7
20260510052004 75 269 1.7 4.3 0.00 0.02 0.00 80 996.7
20260510051504 76 257 2.6 5.2 0.00 0.02 0.00 79 996.7
20260510051004 76 227 2.6 5.2 0.00 0.02 0.00 78 996.6
20260510045504 76 229 0.9 2.6 0.00 0.02 0.02 79 996.7
20260510045004 76 253 1.7 2.6 0.00 0.02 0.02 80 996.6
20260510044504 76 239 1.7 2.6 0.00 0.02 0.02 79 996.7
20260510044004 76 257 0.9 2.6 0.00 0.02 0.02 79 996.9
20260510043504 76 234 0.9 1.7 0.00 0.02 0.02 79 996.7
20260510043004 76 252 0.9 2.6 0.00 0.02 0.02 79 996.7
20260510042504 77 227 1.7 2.6 0.00 0.02 0.02 78 996.7
20260510041504 77 273 1.7 2.6 0.00 0.02 0.02 78 996.9
20260510041004 77 277 1.7 1.7 0.00 0.02 0.02 78 996.9
20260510040504 77 240 1.7 2.6 0.00 0.02 0.02 78 996.7
20260510040004 77 240 1.7 2.6 0.00 0.02 0.02 78 996.8
20260510035504 77 255 1.7 2.6 0.00 0.02 0.02 78 996.6
20260510034504 78 225 0.9 1.7 0.00 0.02 0.02 77 996.5
20260510033504 78 244 1.7 4.3 0.00 0.02 0.02 75 996.5
20260510033004 78 275 2.6 6.1 0.00 0.02 0.02 75 996.4
20260510032504 78 274 1.7 5.2 0.00 0.02 0.02 75 996.6
20260510032004 79 239 1.7 4.3 0.00 0.02 0.02 74 996.3
20260510031504 79 266 2.6 4.3 0.00 0.02 0.02 74 996.4
20260510031004 79 228 2.6 6.1 0.00 0.02 0.02 73 996.3
20260510030504 79 255 3.5 7.0 0.00 0.02 0.02 71 996.3
20260510030004 79 274 2.6 5.2 0.00 0.02 0.02 70 996.2
20260510025504 79 259 0.9 1.7 0.00 0.02 0.02 68 996.2
20260510025005 79 250 0.9 1.7 0.00 0.02 0.02 68 996.1
20260510024504 79 249 0.0 0.0 0.00 0.02 0.02 67 995.8
20260510024005 79 262 0.0 1.7 0.00 0.02 0.02 67 995.8
20260510023504 80 247 0.9 1.7 0.00 0.02 0.02 66 995.9
20260510022505 80 235 0.9 1.7 0.00 0.02 0.02 66 995.7
20260510022005 80 239 0.0 2.6 0.00 0.02 0.02 65 995.6
20260510021504 80 262 1.7 2.6 0.00 0.02 0.02 65 995.7
20260510021004 81 244 0.9 0.9 0.00 0.02 0.02 64 995.5
20260510020504 81 239 0.9 2.6 0.00 0.02 0.02 64 995.4
20260510020005 81 258 0.9 2.6 0.00 0.02 0.02 64 995.3
20260510015504 81 184 0.0 0.9 0.00 0.02 0.02 63 995.4
20260510015004 81 269 1.7 2.6 0.00 0.02 0.02 63 995.1
20260510014505 82 259 2.6 4.3 0.00 0.02 0.02 62 995.1
20260510014004 82 260 1.7 2.6 0.00 0.02 0.02 62 995.1
20260510013504 82 257 2.6 6.1 0.00 0.02 0.02 61 994.9
20260510013004 82 233 2.6 4.3 0.00 0.02 0.02 61 994.9
20260510012504 82 252 1.7 2.6 0.00 0.02 0.02 61 994.9
20260510012004 83 257 2.6 6.1 0.00 0.02 0.02 60 994.9
20260510011004 83 257 2.6 6.1 0.00 0.02 0.02 60 995.0
20260510010504 84 260 1.7 4.3 0.00 0.02 0.02 60 994.8
20260510010005 84 219 2.6 5.2 0.00 0.02 0.02 59 994.8
20260510005504 84 251 2.6 5.2 0.00 0.02 0.02 58 994.8
20260510005004 85 261 2.6 5.2 0.00 0.02 0.02 57 994.7
20260510004004 86 258 2.6 5.2 0.00 0.02 0.02 56 994.6
20260510003504 86 268 1.7 2.6 0.00 0.02 0.02 55 994.5
20260510003004 86 210 1.7 4.3 0.00 0.02 0.02 55 994.5
20260510002504 87 186 1.7 6.1 0.00 0.02 0.02 54 994.5
20260510002004 87 246 2.6 5.2 0.00 0.02 0.02 53 994.4
20260510001504 87 260 1.7 5.2 0.00 0.02 0.02 53 994.4
20260510001005 88 258 0.9 1.7 0.00 0.02 0.02 53 994.3
20260510000504 88 224 2.6 6.1 0.00 0.02 0.02 53 994.2
20260510000004 88 251 1.7 4.3 0.00 0.02 0.02 52 994.1
20260509235504 89 257 1.7 2.6 0.00 0.02 0.02 51 994.2
20260509235004 89 261 1.7 4.3 0.00 0.02 0.02 51 994.1
20260509234505 89 252 0.9 4.3 0.00 0.02 0.02 50 994.1
20260509234005 89 265 1.7 5.2 0.00 0.02 0.02 50 994.0
20260509233505 90 228 0.0 0.9 0.00 0.02 0.02 48 994.1
20260509233006 91 244 0.9 1.7 0.00 0.02 0.02 47 994.0
20260509232505 90 228 0.9 2.6 0.00 0.02 0.02 48 994.0
20260509231004 90 5 1.7 2.6 0.00 0.02 0.02 49 994.1
20260509230004 89 279 1.7 5.2 0.00 0.02 0.02 49 993.9
20260509225504 90 289 0.9 1.7 0.00 0.02 0.02 48 993.9
20260509225004 91 256 0.9 2.6 0.00 0.02 0.02 48 993.8
20260509224504 90 253 0.9 1.7 0.00 0.02 0.02 47 994.0
20260509224005 90 286 1.7 4.3 0.00 0.02 0.02 49 994.2
20260509223504 90 274 1.7 2.6 0.00 0.02 0.02 49 994.2
20260509222504 90 243 0.0 2.6 0.00 0.02 0.02 48 994.1
20260509221004 90 276 0.0 1.7 0.00 0.02 0.02 50 994.1
20260509220505 90 274 0.9 4.3 0.00 0.02 0.02 49 994.0
20260509220004 90 251 1.7 4.3 0.00 0.02 0.02 50 994.1
20260509215504 89 4 1.7 4.3 0.00 0.02 0.02 50 994.0
20260509215004 91 246 1.7 4.3 0.00 0.02 0.02 48 994.1
20260509214504 91 287 1.7 2.6 0.00 0.02 0.02 49 994.1
20260509214004 91 219 1.7 2.6 0.00 0.02 0.02 49 994.2
20260509213004 91 211 1.7 2.6 0.00 0.02 0.02 49 994.4
20260509212504 90 167 1.7 2.6 0.00 0.02 0.02 50 994.4
20260509212004 89 142 1.7 4.3 0.00 0.02 0.02 50 994.4
20260509211505 88 335 0.9 5.2 0.00 0.02 0.02 51 994.5
20260509211004 89 280 0.9 2.6 0.00 0.02 0.02 50 994.7
20260509210504 89 228 2.6 5.2 0.00 0.02 0.02 50 994.6
20260509210004 89 227 1.7 5.2 0.00 0.02 0.02 50 994.7
20260509205504 88 39 0.9 1.7 0.00 0.02 0.02 51 994.7
20260509205005 88 304 2.6 5.2 0.00 0.02 0.02 51 994.8
20260509204505 89 259 0.9 4.3 0.00 0.02 0.02 50 994.8
20260509204004 88 27 1.7 4.3 0.00 0.02 0.02 52 995.0
20260509203504 89 68 1.7 2.6 0.00 0.02 0.02 51 995.0
20260509203006 89 68 1.7 4.3 0.00 0.02 0.02 53 995.1
20260509202505 89 43 0.0 5.2 0.00 0.02 0.02 54 995.2
20260509202004 89 180 1.7 5.2 0.00 0.02 0.02 51 995.4
20260509201504 89 263 1.7 2.6 0.00 0.02 0.02 51 995.6
20260509200504 88 270 0.9 2.6 0.00 0.02 0.02 54 995.7
20260509195504 87 73 1.7 4.3 0.00 0.02 0.02 55 995.7
20260509193505 86 74 0.9 2.6 0.00 0.02 0.02 59 995.7
20260509193004 86 71 0.9 4.3 0.00 0.02 0.02 60 995.8
20260509192504 86 22 0.9 4.3 0.00 0.02 0.02 59 995.9
20260509192004 86 201 1.7 4.3 0.00 0.02 0.02 60 996.0
20260509191504 85 99 1.7 4.3 0.00 0.02 0.02 64 996.1
20260509191004 85 227 0.9 1.7 0.00 0.02 0.02 64 996.1
20260509190504 85 56 0.9 4.3 0.00 0.02 0.02 67 996.2
20260509190004 84 169 0.9 2.6 0.00 0.02 0.02 67 996.3
20260509185505 83 229 0.9 4.3 0.00 0.02 0.02 73 996.5
20260509185004 83 185 2.6 6.1 0.00 0.02 0.02 73 996.4
20260509184504 82 194 1.7 4.3 0.00 0.02 0.02 73 996.4
20260509184004 81 193 1.7 2.6 0.00 0.02 0.02 74 996.4
20260509183504 82 188 0.9 2.6 0.00 0.02 0.02 74 996.4
20260509183004 80 293 0.9 2.6 0.00 0.02 0.02 77 996.7
20260509182504 80 211 0.9 4.3 0.00 0.02 0.02 77 996.8
20260509182004 80 125 0.0 1.7 0.01 0.02 0.02 76 996.8
20260509181504 80 77 0.0 0.9 0.01 0.02 0.02 74 996.9
20260509181004 79 136 0.0 0.0 0.02 0.02 0.02 74 996.9
20260509180505 78 49 0.0 0.9 0.02 0.02 0.02 73 997.1
20260509180005 78 72 0.0 0.9 0.02 0.02 0.02 76 997.1
20260509175504 79 35 0.0 1.7 0.02 0.02 0.02 79 997.2
20260509175005 79 90 0.9 1.7 0.02 0.02 0.02 76 997.0
20260509174504 79 76 0.9 1.7 0.02 0.02 0.02 76 997.0
20260509174004 79 199 0.0 1.7 0.02 0.02 0.02 74 997.2
20260509173504 78 78 0.9 1.7 0.02 0.02 0.02 82 997.2
20260509173005 78 354 0.0 1.7 0.02 0.02 0.02 84 997.1
20260509172504 78 300 0.0 0.9 0.02 0.02 0.02 81 997.3
20260509172004 79 327 0.0 0.9 0.01 0.01 0.01 81 997.3
20260509171505 80 12 0.0 0.9 0.01 0.01 0.01 78 997.5
20260509171004 80 322 0.0 4.3 0.00 0.00 0.00 73 997.8
20260509170504 81 286 0.9 4.3 0.00 0.00 0.00 73 997.6
20260509170004 83 307 0.9 2.6 0.00 0.00 0.00 70 997.7
20260509165504 83 273 0.0 5.2 0.00 0.00 0.00 70 997.7
20260509164504 83 346 2.6 4.3 0.00 0.00 0.00 71 997.3
20260509164004 83 301 0.9 6.1 0.00 0.00 0.00 73 997.3
20260509163504 83 310 1.7 6.1 0.00 0.00 0.00 72 997.5
20260509163004 82 8 1.7 5.2 0.00 0.00 0.00 73 997.6
20260509162004 82 277 4.3 8.7 0.00 0.00 0.00 73 997.5
20260509161505 82 299 3.5 10.4 0.00 0.00 0.00 74 997.5
20260509161005 82 342 2.6 5.2 0.00 0.00 0.00 73 997.3
20260509160504 82 223 1.7 5.2 0.00 0.00 0.00 74 997.5
20260509160005 83 240 2.6 5.2 0.00 0.00 0.00 73 997.4
20260509154004 82 291 2.6 6.1 0.00 0.00 0.00 70 996.8
20260509153504 83 6 2.6 7.0 0.00 0.00 0.00 69 996.6
20260509153004 83 337 4.3 8.7 0.00 0.00 0.00 70 996.8
20260509152504 83 352 0.9 2.6 0.00 0.00 0.00 70 996.5
20260509152004 82 280 1.7 2.6 0.00 0.00 0.00 70 996.7
20260509151504 82 3 0.9 2.6 0.00 0.00 0.00 72 996.8
20260509151004 82 268 0.9 2.6 0.00 0.00 0.00 72 996.7
20260509150504 81 115 0.9 2.6 0.00 0.00 0.00 75 996.5
20260509150004 81 166 0.9 2.6 0.00 0.00 0.00 75 996.6
20260509145504 81 184 0.9 5.2 0.00 0.00 0.00 75 996.3
20260509145004 80 295 2.6 7.0 0.00 0.00 0.00 76 996.5
20260509144504 80 299 1.7 4.3 0.00 0.00 0.00 78 996.3
20260509143504 79 282 3.5 6.1 0.00 0.00 0.00 78 996.3
20260509143004 79 346 2.6 5.2 0.00 0.00 0.00 79 996.3
20260509142504 79 312 1.7 5.2 0.00 0.00 0.00 79 996.2
20260509142004 78 89 1.7 2.6 0.00 0.00 0.00 80 996.4
20260509141504 78 303 1.7 4.3 0.00 0.00 0.00 80 996.4
20260509141005 78 272 0.9 2.6 0.00 0.00 0.00 81 996.2
20260509140504 77 345 0.9 2.6 0.00 0.00 0.00 83 996.1
20260509140006 76 241 0.9 2.6 0.00 0.00 0.00 84 996.1
20260509135504 76 283 2.6 4.3 0.00 0.00 0.00 84 996.4
20260509134504 75 229 1.7 5.2 0.00 0.00 0.00 86 995.9
20260509134004 74 336 2.6 5.2 0.00 0.00 0.00 88 995.9
20260509133004 73 256 1.7 4.3 0.00 0.00 0.00 91 995.7
20260509132505 73 291 1.7 5.2 0.00 0.00 0.00 92 995.8
20260509132005 72 72 0.0 0.0 0.00 0.00 0.00 93 995.9
20260509131504 72 251 0.0 0.9 0.00 0.00 0.00 93 995.7
20260509131004 72 225 0.9 1.7 0.00 0.00 0.00 93 995.6
20260509130504 72 236 1.7 4.3 0.00 0.00 0.00 94 995.9
20260509125505 71 292 1.7 2.6 0.00 0.00 0.00 94 995.8
20260509125005 71 274 1.7 5.2 0.00 0.00 0.00 94 995.8
20260509124504 71 255 0.9 1.7 0.00 0.00 0.00 94 996.1
20260509124004 71 237 0.0 4.3 0.00 0.00 0.00 95 996.0
20260509123504 71 230 0.9 4.3 0.00 0.00 0.00 95 996.3
20260509123004 71 358 0.9 1.7 0.00 0.00 0.00 95 996.3
20260509122504 71 234 0.0 0.0 0.00 0.00 0.00 95 996.5
20260509122005 71 238 0.0 0.0 0.00 0.00 0.00 95 996.4
20260509121005 71 132 0.0 0.0 0.00 0.00 0.00 95 996.7
20260509120504 71 204 0.0 0.0 0.00 0.00 0.00 95 996.5
20260509115004 71 190 0.0 0.0 0.00 0.00 0.00 95 996.9
20260509114504 71 175 0.0 0.0 0.00 0.00 0.00 94 997.0
20260509114004 71 168 0.0 0.0 0.00 0.00 0.00 94 997.1
20260509113004 70 187 0.0 0.0 0.00 0.00 0.00 94 997.3
20260509112504 70 199 0.0 0.0 0.00 0.00 0.00 94 997.3